Weather History for Hamilton, OH

Change the Weather History Date:

Friday, October 26, 2012

  Actual Average (KCVG) Record (KCVG)
Temperature  
Mean Temperature 52 °F 53 °F  
Max Temperature 59 °F 63 °F 82 °F (1963)
Min Temperature 44 °F 43 °F 19 °F (1962)
Degree Days  
Heating Degree Days 14 13  
Month to date heating degree days 236  
Since 1 July heating degree days 294  
Cooling Degree Days 0 0  
Month to date cooling degree days 16  
Year to date cooling degree days 1121  
Growing Degree Days 2 (Base 50)    
Moisture  
Dew Point 46 °F    
Average Humidity 90    
Maximum Humidity 93    
Minimum Humidity 80    
Precipitation  
Precipitation 0.81 in 0.11 in 1.27 in (2010)
Month to date precipitation 2.76  
Year to date precipitation 35.18  
Snow  
Snow 0.00 in 0.00 in 0.00 in ()
Month to date snowfall 0.3  
Since 1 July snowfall 0.3  
Since 1 September snowfall 0.3  
Snow Depth -    
Sea Level Pressure  
Sea Level Pressure 30.15 in    
Wind  
Wind Speed 8 mph (North)    
Max Wind Speed 16 mph    
Max Gust Speed 24 mph    
Visibility 5 miles    
Events Rain    
T = Trace of Precipitation, MM = Missing Value Source: NWS Daily Summary

Daily Weather History Graph

Daily Weather History Graph

Search for Another Location

Airport:

Trip Planner

Search our weather history database for the weather conditions in past years. The results will help you decide how hot, cold, wet, or windy it might be!

Date:

Astronomy

Oct. 26, 2012 Rise Set
Actual Time 8:00 AM EDT 6:43 PM EDT
Civil Twilight 7:32 AM EDT 7:10 PM EDT
Nautical Twilight 7:01 AM EDT 7:42 PM EDT
Astronomical Twilight 6:29 AM EDT 8:13 PM EDT
Moon 4:58 PM EDT (10/26) 4:56 AM EDT (10/26)
Length of Visible Light 11h 38m
Length of Day
10h 43m
Waxing Gibbous, 91% of the Moon is Illuminated
Oct 26
Waxing Gibbous
Oct 29
Full
Nov 6
Last Quarter
Nov 13
New
Nov 20
First Quarter

Hourly Weather History & Observations

Time (EDT) Temp. Windchill Dew Point Humidity Pressure Visibility Wind Dir Wind Speed Gust Speed Precip Events Conditions
1:53 AM 57.9 °F - 52.0 °F 81% 29.97 in 10.0 mi NE 3.5 mph - N/A   Clear
2:53 AM 57.9 °F - 52.0 °F 81% 29.98 in 10.0 mi ENE 3.5 mph - N/A   Mostly Cloudy
3:53 AM 57.0 °F - 52.0 °F 83% 29.97 in 10.0 mi Calm Calm - N/A   Partly Cloudy
4:53 AM 59.0 °F - 53.1 °F 81% 30.01 in 10.0 mi NW 16.1 mph 24.2 mph N/A   Mostly Cloudy
5:53 AM 53.1 °F - 46.9 °F 80% 30.06 in 10.0 mi NW 11.5 mph 21.9 mph N/A   Mostly Cloudy
6:53 AM 53.1 °F - 46.9 °F 80% 30.09 in 10.0 mi NW 10.4 mph 20.7 mph N/A   Overcast
7:53 AM 52.0 °F - 46.9 °F 83% 30.13 in 10.0 mi NW 16.1 mph - N/A   Overcast
9:50 AM 51.8 °F - 46.4 °F 82% 30.16 in 10.0 mi North 9.2 mph - 0.01 in Rain Light Rain
9:53 AM 52.0 °F - 46.9 °F 83% 30.16 in 10.0 mi North 9.2 mph - 0.01 in   Overcast
10:53 AM 50.0 °F - 45.0 °F 83% 30.18 in 10.0 mi North 8.1 mph - N/A   Overcast
11:53 AM 50.0 °F - 46.0 °F 86% 30.19 in 6.0 mi North 10.4 mph - 0.01 in Rain Light Rain
12:00 PM 48.2 °F - 46.4 °F 93% 30.19 in 5.0 mi NNE 8.1 mph - 0.01 in Rain Light Rain
12:45 PM 48.2 °F - 44.6 °F 87% 30.19 in 2.0 mi North 5.8 mph - 0.05 in Rain Rain
12:53 PM 48.0 °F - 45.0 °F 89% 30.20 in 2.0 mi North 9.2 mph - 0.06 in Rain Rain
1:03 PM 48.2 °F - 44.6 °F 87% 30.19 in 4.0 mi NNE 9.2 mph - 0.01 in Rain Light Rain
1:15 PM 48.2 °F - 46.4 °F 93% 30.19 in 5.0 mi North 6.9 mph - 0.01 in Rain Light Rain
1:30 PM 48.2 °F - 46.4 °F 93% 30.20 in 2.5 mi NNW 6.9 mph - 0.03 in Rain Rain
1:39 PM 48.2 °F - 46.4 °F 93% 30.20 in 1.8 mi WNW 5.8 mph - 0.05 in Rain Rain
1:46 PM 48.2 °F - 46.4 °F 93% 30.20 in 1.5 mi NNW 10.4 mph - 0.08 in Rain Heavy Rain
1:53 PM 48.0 °F - 46.0 °F 93% 30.19 in 2.0 mi NNW 8.1 mph - 0.10 in Rain Rain
2:05 PM 48.2 °F - 46.4 °F 93% 30.18 in 4.0 mi North 9.2 mph - 0.01 in Rain Rain
2:12 PM 48.2 °F - 46.4 °F 93% 30.17 in 3.0 mi North 9.2 mph - 0.03 in Rain Rain
2:53 PM 46.9 °F - 45.0 °F 93% 30.17 in 4.0 mi North 10.4 mph - 0.11 in Rain Rain
3:18 PM 46.4 °F 41.5 °F 44.6 °F 93% 30.16 in 10.0 mi North 10.4 mph - 0.01 in Rain Light Rain
3:43 PM 46.4 °F 42.9 °F 44.6 °F 93% 30.16 in 2.5 mi North 6.9 mph - 0.04 in Rain Rain
3:48 PM 46.4 °F 43.5 °F 44.6 °F 93% 30.16 in 2.0 mi North 5.8 mph - 0.05 in Rain Rain
3:53 PM 46.9 °F - 45.0 °F 93% 30.17 in 1.5 mi NNW 6.9 mph - 0.07 in Rain Heavy Rain
4:02 PM 46.4 °F 43.5 °F 44.6 °F 93% 30.16 in 2.0 mi North 5.8 mph - 0.03 in Rain Rain
4:09 PM 46.4 °F 42.9 °F 44.6 °F 93% 30.16 in 3.0 mi North 6.9 mph - 0.04 in Rain Rain
4:22 PM 46.4 °F 41.9 °F 44.6 °F 93% 30.15 in 4.0 mi North 9.2 mph - 0.07 in Rain Rain
4:40 PM 46.4 °F 42.9 °F 44.6 °F 93% 30.14 in 5.0 mi North 6.9 mph - 0.09 in Rain Light Rain
4:53 PM 46.9 °F - 44.1 °F 90% 30.16 in 9.0 mi NNW 5.8 mph - 0.09 in Rain Light Rain
5:05 PM 46.4 °F 41.9 °F 44.6 °F 93% 30.16 in 1.8 mi NNW 9.2 mph - 0.04 in Rain Heavy Rain
5:12 PM 46.4 °F 41.5 °F 44.6 °F 93% 30.17 in 1.5 mi NW 10.4 mph - 0.06 in Rain Rain
5:14 PM 46.4 °F 41.9 °F 44.6 °F 93% 30.17 in 2.0 mi NW 9.2 mph - 0.06 in Rain Rain
5:41 PM 46.4 °F 44.3 °F 44.6 °F 93% 30.16 in 4.0 mi North 4.6 mph - 0.10 in Rain Light Rain
5:48 PM 46.4 °F 42.4 °F 44.6 °F 93% 30.16 in 4.0 mi North 8.1 mph - 0.10 in Rain Light Rain
5:53 PM 46.9 °F - 44.1 °F 90% 30.16 in 4.0 mi North 9.2 mph - 0.11 in Rain Light Rain
6:07 PM 46.4 °F 42.9 °F 44.6 °F 93% 30.15 in 3.0 mi North 6.9 mph - 0.02 in Rain Rain
6:27 PM 46.4 °F 42.4 °F 44.6 °F 93% 30.15 in 4.0 mi North 8.1 mph - 0.06 in Rain Rain
6:53 PM 46.9 °F - 44.1 °F 90% 30.16 in 9.0 mi NNE 6.9 mph - 0.08 in Rain Light Rain
7:53 PM 46.0 °F 41.4 °F 44.1 °F 93% 30.16 in 6.0 mi North 9.2 mph - 0.03 in Rain Light Rain
8:53 PM 46.0 °F 41.9 °F 44.1 °F 93% 30.16 in 3.0 mi North 8.1 mph - 0.05 in Rain Rain
9:16 PM 46.4 °F 41.5 °F 42.8 °F 87% 30.15 in 4.0 mi North 10.4 mph - 0.02 in Rain Rain
9:53 PM 46.0 °F 41.0 °F 43.0 °F 89% 30.14 in 4.0 mi North 10.4 mph - 0.06 in Rain Rain
10:07 PM 44.6 °F 39.2 °F 42.8 °F 93% 30.14 in 4.0 mi North 10.4 mph - 0.01 in Rain Light Rain
10:40 PM 44.6 °F 40.2 °F 42.8 °F 93% 30.15 in 4.0 mi North 8.1 mph - 0.02 in Rain Light Rain
10:48 PM 44.6 °F 41.4 °F 42.8 °F 93% 30.15 in 3.0 mi North 5.8 mph - 0.03 in Rain Light Rain
10:53 PM 45.0 °F 41.2 °F 43.0 °F 93% 30.16 in 3.0 mi NNW 6.9 mph - 0.03 in Rain Light Rain